{"data":{"norad_id":44390,"epoch":"2026-09-20T05:02:30.840288Z","epoch_age_seconds":86783,"freshness":"FRESH","line1":"1 44390U 19038D   26263.21007917  .00007733  00000+0  25937-3 0  9995","line2":"2 44390  97.8692 301.8113 0011705 337.2965  22.7756 15.31142661396332","mean_motion":15.31142661,"eccentricity":0.0011705,"inclination_deg":97.8692,"raan_deg":301.8113,"arg_perigee_deg":337.2965,"mean_anomaly_deg":22.7756,"bstar":0.00025937,"rev_number":39633,"period_min":94.047408950093,"perigee_km":464.38334194326,"apogee_km":480.42045350283,"semimajor_km":6850.538897723,"source":"CELESTRAK","updated_at":"2026-09-20T09:00:14.526686Z"}}